Regional Weather Roundup
Issued by NWS

Home | Current Version | Previous Version | Graphics & Text | Print | Product List | Glossary On
Versions: 1 2 3 4 5 6 7 8 9 10 11 12 13 14 15 16 17 18 19 20 21 22 23 24 25 26 27 28 29 30 31 32 33 34 35 36 37 38 39 40 41 42 43 44 45 46 47 48 49 50
000
ASUS43 KFSD 061610
RWRSD

WEATHER ROUNDUP FOR SOUTH DAKOTA
NATIONAL WEATHER SERVICE SIOUX FALLS SD
1100 AM CDT FRI MAY 06 2016

NOTE: "FAIR" INDICATES FEW OR NO CLOUDS BELOW 12,000 FEET WITH NO
SIGNIFICANT WEATHER AND/OR OBSTRUCTIONS TO VISIBILITY.


SDZ001>005-009-010-012>017-061700-
NORTHWEST AND NORTH CENTRAL SOUTH DAKOTA

CITY           SKY/WX    TMP DP  RH WIND       PRES   REMARKS
BUFFALO          N/A     69  46  43 N24G31    29.94R
FAITH            N/A     72  49  44 N17       29.90R
MOBRIDGE       SUNNY     76  55  48 NW7       29.82R HAZE
$$

SDZ012>016-024>037-041>051-057-063-072>074-061700-
SOUTHWEST AND SOUTH CENTRAL SOUTH DAKOTA

CITY           SKY/WX    TMP DP  RH WIND       PRES   REMARKS
RAPID CTY ARPT CLOUDY    77  48  35 N16       29.92R
PIERRE         SUNNY     73  54  51 SW6       29.83S
CUSTER         CLOUDY    75  29  18 E6        30.05R
ELLSWORTH AFB  MOSUNNY   72  50  45 N20G26    29.92R
PHILIP         CLOUDY    73  55  53 SW9       29.86S
PINE RIDGE     CLOUDY    73  48  41 SW12      29.93R
WINNER         FAIR      78  54  43 SW16G24   29.87F
$$

SDZ004>011-016>023-039-040-061700-
NORTHEAST SOUTH DAKOTA

CITY           SKY/WX    TMP DP  RH WIND       PRES   REMARKS
ABERDEEN       MOSUNNY   79  52  38 W8        29.80S
WATERTOWN      SUNNY     76  52  43 W18       29.81S
BROOKINGS      SUNNY     77  52  41 SW22G29   29.82F
SISSETON         N/A     79  54  41 W8G17     29.76R
$$

SDZ017-020-022-023-036>040-048>070-061700-
SOUTHEAST SOUTH DAKOTA

CITY           SKY/WX    TMP DP  RH WIND       PRES   REMARKS
SIOUX FALLS    MOSUNNY   75  51  43 SW14G22   29.89F
HURON          SUNNY     79  56  45 SW9       29.82F
CHAMBERLAIN    SUNNY     79  57  45 SW14      29.86F
MITCHELL       SUNNY     79  52  38 SW15G22   29.86F
YANKTON        SUNNY     77  52  41 SW14G23   29.90S
$$

ABBREVIATIONS USED IN REMARKS
   TC - TEMPERATURE IN CELSIUS
  WCI - WIND CHILL INDEX
   HX - HEAT INDEX
  VSB - VISIBILITY




USA.gov is the U.S. government's official web portal to all federal, state and local government web resources and services.